This is the latest recevied weather packets stored in our database for station/object OE9XVI-6. If no packets are shown the sender has not sent any weather packets the latest 10 day(s).
| Time | Temp. | Humidity | Pressure | Rain* | Wind** | Luminosity | Snow |
|---|---|---|---|---|---|---|---|
| 1777923415 | 12.78° C | 46% | 1014.4 hPa | 0 mm | - | - | - |
| 1777922815 | 12.78° C | 45% | 1014.4 hPa | 0 mm | - | - | - |
| 1777922215 | 12.78° C | 45% | 1014.4 hPa | 0 mm | - | - | - |
| 1777921616 | 13.33° C | 46% | 1014.4 hPa | 0 mm | - | - | - |
| 1777921015 | 13.33° C | 45% | 1014.4 hPa | 0 mm | - | - | - |
| 1777920416 | 13.89° C | 44% | 1014.4 hPa | 0 mm | - | - | - |
| 1777919816 | 13.89° C | 44% | 1014.6 hPa | 0 mm | - | - | - |
| 1777919216 | 14.44° C | 43% | 1014.7 hPa | 0 mm | - | - | - |
| 1777918616 | 14.44° C | 45% | 1014.7 hPa | 0 mm | - | - | - |
| 1777918016 | 15° C | 45% | 1014.8 hPa | 0 mm | - | - | - |
| 1777917416 | 15° C | 44% | 1014.8 hPa | 0 mm | - | - | - |
| 1777916816 | 15° C | 42% | 1015 hPa | 0 mm | - | - | - |
| 1777916216 | 15° C | 42% | 1014.9 hPa | 0 mm | - | - | - |
| 1777915616 | 15° C | 41% | 1015 hPa | 0 mm | - | - | - |
| 1777915016 | 15.56° C | 42% | 1015.1 hPa | 0 mm | - | - | - |
| 1777914416 | 15.56° C | 43% | 1015.3 hPa | 0 mm | - | - | - |
| 1777913816 | 15.56° C | 41% | 1015.3 hPa | 0 mm | - | - | - |
| 1777913216 | 15.56° C | 40% | 1015.3 hPa | 0 mm | - | - | - |
| 1777912616 | 15.56° C | 40% | 1015.3 hPa | 0 mm | - | - | - |
| 1777912016 | 16.11° C | 39% | 1015.1 hPa | 0 mm | - | - | - |
| 1777911416 | 16.11° C | 39% | 1015.1 hPa | 0 mm | - | - | - |
| 1777910816 | 16.11° C | 40% | 1015.1 hPa | 0 mm | - | - | - |
| 1777910216 | 16.11° C | 41% | 1015 hPa | 0 mm | - | - | - |
| 1777909616 | 16.67° C | 39% | 1015 hPa | 0 mm | - | - | - |
| 1777908420 | 18.33° C | 37% | 1014.9 hPa | 0 mm | - | - | - |
* Rain latest hour (hover to see other rain measurements)
** Current wind speed in m/s (hover to see current wind gust speed)